Time,TemperatureF,DewpointF,PressureIn,WindDirection,WindDirectionDegrees,WindSpeedMPH,WindSpeedGustMPH,Humidity,HourlyPrecipIn,Conditions,Clouds,dailyrainin,SoftwareType,DateUTC
2013-04-07 00:10:00,65.2,47.0,29.85,SW,232,14.0,17.0,52,0.00,,,0.00,weatherlink.com 1.10,2013-04-07 05:10:00,
2013-04-07 00:25:00,65.1,47.0,29.85,SSE,165,11.0,19.0,52,0.00,,,0.00,weatherlink.com 1.10,2013-04-07 05:25:00,
2013-04-07 00:40:00,65.1,47.0,29.85,SSW,205,10.0,17.0,52,0.00,,,0.00,weatherlink.com 1.10,2013-04-07 05:40:00,
2013-04-07 00:55:00,65.2,46.0,29.85,SSW,208,8.0,19.0,51,0.00,,,0.00,weatherlink.com 1.10,2013-04-07 05:55:00,
2013-04-07 03:03:00,64.3,48.0,29.83,SW,226,10.0,17.0,55,0.00,,,0.00,weatherlink.com 1.10,2013-04-07 08:03:00,
2013-04-07 03:39:00,64.3,49.0,29.84,SSW,194,7.0,19.0,57,0.00,,,0.00,weatherlink.com 1.10,2013-04-07 08:39:00,
2013-04-07 03:55:00,64.2,49.0,29.84,SW,220,5.0,12.0,58,0.00,,,0.00,weatherlink.com 1.10,2013-04-07 08:55:00,
2013-04-07 04:10:00,64.0,49.0,29.84,SSW,193,7.0,17.0,58,0.00,,,0.00,weatherlink.com 1.10,2013-04-07 09:10:00,
2013-04-07 04:25:00,63.7,49.0,29.85,SSW,198,2.0,12.0,59,0.00,,,0.00,weatherlink.com 1.10,2013-04-07 09:25:00,
2013-04-07 04:40:00,63.5,49.0,29.85,WSW,248,3.0,10.0,60,0.00,,,0.00,weatherlink.com 1.10,2013-04-07 09:40:00,
2013-04-07 04:55:00,63.1,49.0,29.86,SSW,192,3.0,8.0,61,0.00,,,0.00,weatherlink.com 1.10,2013-04-07 09:55:00,
2013-04-07 05:10:00,63.0,49.0,29.86,SSW,206,4.0,7.0,61,0.00,,,0.00,weatherlink.com 1.10,2013-04-07 10:10:00,
2013-04-07 05:25:00,62.5,49.0,29.86,South,188,2.0,8.0,62,0.00,,,0.00,weatherlink.com 1.10,2013-04-07 10:25:00,
2013-04-07 05:40:00,62.3,49.0,29.87,South,188,2.0,4.0,63,0.00,,,0.00,weatherlink.com 1.10,2013-04-07 10:40:00,
2013-04-07 05:55:00,62.0,50.0,29.87,South,188,3.0,5.0,64,0.00,,,0.00,weatherlink.com 1.10,2013-04-07 10:55:00,
2013-04-07 06:10:00,61.7,49.0,29.88,South,188,4.0,5.0,64,0.00,,,0.00,weatherlink.com 1.10,2013-04-07 11:10:00,
2013-04-07 06:25:00,60.3,49.0,29.88,South,188,4.0,4.0,67,0.00,,,0.00,weatherlink.com 1.10,2013-04-07 11:25:00,
2013-04-07 06:41:00,59.3,49.0,29.89,South,188,3.0,3.0,69,0.00,,,0.00,weatherlink.com 1.10,2013-04-07 11:41:00,
2013-04-07 06:56:00,58.9,49.0,29.89,South,188,1.0,4.0,70,0.00,,,0.00,weatherlink.com 1.10,2013-04-07 11:56:00,
2013-04-07 07:11:00,58.6,49.0,29.90,South,188,2.0,4.0,71,0.00,,,0.00,weatherlink.com 1.10,2013-04-07 12:11:00,
2013-04-07 07:26:00,59.6,50.0,29.90,South,184,4.0,6.0,70,0.00,,,0.00,weatherlink.com 1.10,2013-04-07 12:26:00,
2013-04-07 07:41:00,61.2,50.0,29.91,South,184,3.0,6.0,68,0.00,,,0.00,weatherlink.com 1.10,2013-04-07 12:41:00,
2013-04-07 07:56:00,62.4,51.0,29.91,South,173,3.0,8.0,67,0.00,,,0.00,weatherlink.com 1.10,2013-04-07 12:56:00,
2013-04-07 08:11:00,63.2,51.0,29.91,South,178,4.0,9.0,65,0.00,,,0.00,weatherlink.com 1.10,2013-04-07 13:11:00,
2013-04-07 08:26:00,63.8,51.0,29.92,SW,227,7.0,13.0,64,0.00,,,0.00,weatherlink.com 1.10,2013-04-07 13:26:00,
2013-04-07 09:11:00,65.7,52.0,29.91,WSW,247,8.0,10.0,61,0.00,,,0.00,weatherlink.com 1.10,2013-04-07 14:11:00,
2013-04-07 09:56:00,68.5,52.0,29.91,SSW,205,5.0,11.0,57,0.00,,,0.00,weatherlink.com 1.10,2013-04-07 14:56:00,
2013-04-07 10:26:00,70.0,52.0,29.92,SW,215,8.0,11.0,54,0.00,,,0.00,weatherlink.com 1.10,2013-04-07 15:26:00,
2013-04-07 10:41:00,70.7,53.0,29.92,WSW,245,2.0,8.0,54,0.00,,,0.00,weatherlink.com 1.10,2013-04-07 15:41:00,
2013-04-07 10:56:00,71.4,53.0,29.93,WSW,240,2.0,11.0,53,0.00,,,0.00,weatherlink.com 1.10,2013-04-07 15:56:00,
2013-04-07 11:11:00,71.8,54.0,29.92,South,191,3.0,10.0,53,0.00,,,0.00,weatherlink.com 1.10,2013-04-07 16:11:00,
2013-04-07 11:26:00,72.2,53.0,29.92,SSW,202,2.0,10.0,52,0.00,,,0.00,weatherlink.com 1.10,2013-04-07 16:26:00,
2013-04-07 11:41:00,73.3,53.0,29.92,WSW,252,6.0,14.0,50,0.00,,,0.00,weatherlink.com 1.10,2013-04-07 16:41:00,
2013-04-07 12:11:00,73.9,53.0,29.91,SSE,155,7.0,12.0,49,0.00,,,0.00,weatherlink.com 1.10,2013-04-07 17:11:00,
2013-04-07 12:26:00,74.3,54.0,29.91,South,182,3.0,10.0,49,0.00,,,0.00,weatherlink.com 1.10,2013-04-07 17:26:00,
2013-04-07 12:41:00,74.8,55.0,29.91,SSW,212,7.0,14.0,50,0.00,,,0.00,weatherlink.com 1.10,2013-04-07 17:41:00,
2013-04-07 13:11:00,75.2,56.0,29.90,South,185,5.0,12.0,51,0.00,,,0.00,weatherlink.com 1.10,2013-04-07 18:11:00,
2013-04-07 13:26:00,75.7,57.0,29.90,South,172,10.0,16.0,53,0.00,,,0.00,weatherlink.com 1.10,2013-04-07 18:26:00,
2013-04-07 13:41:00,76.0,57.0,29.90,SE,142,9.0,18.0,52,0.00,,,0.00,weatherlink.com 1.10,2013-04-07 18:41:00,
2013-04-07 14:11:00,74.8,56.0,29.89,South,169,3.0,13.0,53,0.00,,,0.00,weatherlink.com 1.10,2013-04-07 19:11:00,
2013-04-07 14:27:00,74.6,56.0,29.89,South,190,11.0,16.0,52,0.00,,,0.00,weatherlink.com 1.10,2013-04-07 19:27:00,
2013-04-07 14:42:00,74.8,57.0,29.89,SSE,159,10.0,15.0,55,0.00,,,0.00,weatherlink.com 1.10,2013-04-07 19:42:00,
2013-04-07 15:11:00,75.6,58.0,29.88,SSW,197,8.0,17.0,54,0.00,,,0.00,weatherlink.com 1.10,2013-04-07 20:11:00,
2013-04-07 15:26:00,75.1,57.0,29.87,SSW,200,7.0,16.0,54,0.00,,,0.00,weatherlink.com 1.10,2013-04-07 20:26:00,
2013-04-07 15:41:00,75.9,58.0,29.86,South,180,10.0,15.0,55,0.00,,,0.00,weatherlink.com 1.10,2013-04-07 20:41:00,
2013-04-07 15:56:00,75.1,57.0,29.86,SSW,209,10.0,15.0,53,0.00,,,0.00,weatherlink.com 1.10,2013-04-07 20:56:00,
2013-04-07 16:12:00,75.1,58.0,29.86,SE,144,16.0,16.0,56,0.00,,,0.00,weatherlink.com 1.10,2013-04-07 21:12:00,
2013-04-07 16:27:00,75.2,58.0,29.86,South,188,13.0,17.0,56,0.00,,,0.00,weatherlink.com 1.10,2013-04-07 21:27:00,
2013-04-07 16:42:00,75.7,57.0,29.86,SSW,194,9.0,18.0,53,0.00,,,0.00,weatherlink.com 1.10,2013-04-07 21:42:00,
2013-04-07 16:57:00,74.5,58.0,29.85,South,169,10.0,18.0,56,0.00,,,0.00,weatherlink.com 1.10,2013-04-07 21:57:00,
2013-04-07 17:11:00,74.0,58.0,29.86,SSE,159,13.0,16.0,57,0.00,,,0.00,weatherlink.com 1.10,2013-04-07 22:11:00,
2013-04-07 17:27:00,74.1,57.0,29.86,South,182,13.0,19.0,55,0.00,,,0.00,weatherlink.com 1.10,2013-04-07 22:27:00,
2013-04-07 17:42:00,73.3,57.0,29.86,South,175,10.0,19.0,57,0.00,,,0.00,weatherlink.com 1.10,2013-04-07 22:42:00,
2013-04-07 17:57:00,72.1,57.0,29.86,South,169,12.0,17.0,59,0.00,,,0.00,weatherlink.com 1.10,2013-04-07 22:57:00,
2013-04-07 18:12:00,72.3,58.0,29.86,South,173,14.0,14.0,61,0.00,,,0.00,weatherlink.com 1.10,2013-04-07 23:12:00,
2013-04-07 18:27:00,71.5,57.0,29.86,SSE,167,12.0,20.0,61,0.00,,,0.00,weatherlink.com 1.10,2013-04-07 23:27:00,
2013-04-07 18:42:00,70.7,57.0,29.86,South,172,5.0,13.0,63,0.00,,,0.00,weatherlink.com 1.10,2013-04-07 23:42:00,
2013-04-07 18:57:00,70.4,58.0,29.86,South,182,8.0,16.0,64,0.00,,,0.00,weatherlink.com 1.10,2013-04-07 23:57:00,
2013-04-07 19:12:00,70.1,58.0,29.86,SSW,193,11.0,17.0,65,0.00,,,0.00,weatherlink.com 1.10,2013-04-08 00:12:00,
2013-04-07 19:27:00,69.5,58.0,29.86,South,182,9.0,14.0,66,0.00,,,0.00,weatherlink.com 1.10,2013-04-08 00:27:00,
2013-04-07 19:42:00,68.6,58.0,29.86,SSE,156,10.0,14.0,69,0.00,,,0.00,weatherlink.com 1.10,2013-04-08 00:42:00,
2013-04-07 19:57:00,68.3,58.0,29.87,South,188,9.0,13.0,70,0.00,,,0.00,weatherlink.com 1.10,2013-04-08 00:57:00,
2013-04-07 20:12:00,67.6,58.0,29.87,SSE,165,9.0,16.0,71,0.00,,,0.00,weatherlink.com 1.10,2013-04-08 01:12:00,
2013-04-07 20:27:00,67.0,58.0,29.87,South,183,14.0,17.0,72,0.00,,,0.00,weatherlink.com 1.10,2013-04-08 01:27:00,
2013-04-07 20:42:00,66.6,58.0,29.88,SSE,166,9.0,12.0,73,0.00,,,0.00,weatherlink.com 1.10,2013-04-08 01:42:00,
2013-04-07 20:57:00,66.3,58.0,29.89,SSE,157,8.0,13.0,74,0.00,,,0.00,weatherlink.com 1.10,2013-04-08 01:57:00,
2013-04-07 21:12:00,66.1,58.0,29.89,South,186,7.0,15.0,74,0.00,,,0.00,weatherlink.com 1.10,2013-04-08 02:12:00,
2013-04-07 21:27:00,65.3,57.0,29.89,SSE,163,4.0,8.0,75,0.00,,,0.00,weatherlink.com 1.10,2013-04-08 02:27:00,
2013-04-07 21:42:00,65.3,58.0,29.89,SSE,163,7.0,11.0,76,0.00,,,0.00,weatherlink.com 1.10,2013-04-08 02:42:00,
2013-04-07 21:57:00,65.2,57.0,29.90,South,182,4.0,13.0,76,0.00,,,0.00,weatherlink.com 1.10,2013-04-08 02:57:00,
2013-04-07 22:12:00,64.8,57.0,29.89,SSE,155,4.0,8.0,77,0.00,,,0.00,weatherlink.com 1.10,2013-04-08 03:12:00,
2013-04-07 22:27:00,64.4,57.0,29.89,SSE,167,6.0,9.0,77,0.00,,,0.00,weatherlink.com 1.10,2013-04-08 03:27:00,
2013-04-07 22:42:00,64.0,57.0,29.89,South,173,7.0,9.0,78,0.00,,,0.00,weatherlink.com 1.10,2013-04-08 03:42:00,
2013-04-07 22:57:00,63.5,57.0,29.89,South,173,3.0,8.0,79,0.00,,,0.00,weatherlink.com 1.10,2013-04-08 03:57:00,
2013-04-07 23:12:00,62.7,56.0,29.89,South,173,3.0,5.0,80,0.00,,,0.00,weatherlink.com 1.10,2013-04-08 04:12:00,
2013-04-07 23:27:00,62.3,56.0,29.89,South,173,3.0,5.0,81,0.00,,,0.00,weatherlink.com 1.10,2013-04-08 04:27:00,
2013-04-07 23:42:00,61.8,56.0,29.89,South,173,3.0,4.0,82,0.00,,,0.00,weatherlink.com 1.10,2013-04-08 04:42:00,
2013-04-07 23:57:00,61.6,56.0,29.89,South,173,3.0,4.0,82,0.00,,,0.00,weatherlink.com 1.10,2013-04-08 04:57:00,